カタログに戻る

NOAA 16 DEB

運用中SSO
NORAD 41511·DEBRIS·🇺🇸 United States

打ち上げ Sep 21, 2000 から Vandenberg Space Force Base

Loading…

次のパス (今後24時間)

TLE

最新Source: Space-Track

元期: Sep 14, 2026, 09:11 UTC

1 41511U 00055MK  26257.38270888  .00001779  00000-0  80222-3 0  9999
2 41511  98.6826 312.5337 0024502 208.8486 151.1339 14.23305206540611

AllMySatでNOAA 16 DEBをリアルタイム追跡

Download on the App Store